Hourly Data Report for October 01, 2017

All times are specified in Local Standard Time (LST). Add 1 hour to adjust for Daylight Saving Time where and when it is observed.

POINT ATKINSON
BRITISH COLUMBIA

49°19'49.300" N
123°15'53.000" W
14.00 m
1106200
71037
WSB

Download Data

Hourly Data (October 2017)
Hourly Data Report for October 1, 2017
Temp Definition
°C
Dew Point Temp Definition
°C
Rel Hum Definition
%
Wind Dir Definition
10's deg

Wind Spd Definition
km/h
Visibility Definition
km
Stn Press Definition
kPa
Hmdx Definition


Wind Chill Definition


Weather Definition


TIME
00:00 11.4 8.9 85 8 3   101.58     LegendNANA
01:00 11.0 8.5 85   0   101.62     LegendNANA
02:00 10.8 8.5 86 8 3   101.60     LegendNANA
03:00 10.9 8.5 85 32 5   101.62     LegendNANA
04:00 11.0 8.6 85 31 5   101.64     LegendNANA
05:00 11.0 8.1 82 34 3   101.65     LegendNANA
06:00 10.7 7.3 79 8 3   101.67     LegendNANA
07:00 10.9 7.5 80 32 6   101.71     LegendNANA
08:00 12.9 8.7 76 14 2   101.75     LegendNANA
09:00 12.8 8.8 77 13 4   101.74     LegendNANA
10:00 12.5 8.3 76 10 7   101.75     LegendNANA
11:00 12.4 7.7 73 27 15   101.75     LegendNANA
12:00 12.9 9.0 77 28 26   101.74     LegendNANA
13:00 13.0 9.2 78 28 33   101.71     LegendNANA
14:00 13.3 9.0 75 28 33   101.69     LegendNANA
15:00 13.6 9.2 75 28 29   101.69     LegendNANA
16:00 14.3 8.1 66 29 29   101.67     LegendNANA
17:00 14.5 8.2 66 30 16   101.71     LegendNANA
18:00 13.8 10.7 81 28 19   101.70     LegendNANA
19:00 13.4 7.9 69 7 7   101.72     LegendNANA
20:00 12.9 7.7 71 6 2   101.75     LegendNANA
21:00 12.2 8.7 79 15 5   101.76     LegendNANA
22:00 11.5 8.2 80 8 3   101.77     LegendNANA
23:00 11.4 8.2 81 0 1   101.79     LegendNANA

Notes on Data Quality.

Legend

  • E = Estimated
  • M = Missing
  • NA = Not Available
  • ‡ = Partner data that is not subject to review by the National Climate Archives
Date modified: